Probability
7 8 14 21 20 10 2 0 0 0 0 0 0 0 0 0 0 0 0 0 1 3 3 3 3 3 3 1 1 2 3 2 1 0 0 0 0 0 0 0 0 0 0 0 0 0 0 0 0
7 11 18 21 15 6 1 0 0 0 0 0 0 0 0 0 0 0 1 1 2 2 2 2 3 3 3 3 2 2 2 2 1 0 0 0 0 0 0 0 0 0 0 0 0 0 0 0 0
10 16 22 19 9 2 0 0 0 0 0 0 0 0 0 0 0 0 1 2 2 1 1 2 3 3 4 4 3 3 2 1 0 0 0 0 0 0 0 0 0 0 0 0 0 0 0 0 0
18 22 23 16 6 1 0 0 0 0 0 0 0 0 0 0 0 0 1 1 1 0 1 2 3 4 5 5 4 4 4 2 0 0 0 0 0 0 0 0 0 1 0 0 0 0 0 0 0
26 26 21 10 3 0 0 0 0 0 0 0 0 0 0 0 0 0 0 0 0 0 1 2 3 3 4 4 4 4 3 1 0 0 0 0 0 0 0 0 0 0 0 0 0 0 0 0 0
28 26 15 4 0 0 0 0 0 0 0 0 0 0 0 0 0 0 0 0 0 0 1 3 4 4 3 3 3 3 2 1 0 0 0 0 0 0 0 0 0 0 0 0 0 0 0 0 0
23 18 9 1 0 0 0 0 0 0 0 0 0 0 0 0 0 0 0 0 0 0 1 2 4 5 4 4 4 3 2 1 0 0 0 0 0 0 0 0 1 1 1 0 0 1 1 1 0
11 8 4 1 0 0 0 0 0 0 0 0 0 0 0 0 0 0 0 0 0 0 0 1 3 4 5 5 4 3 2 1 0 0 0 0 0 1 1 1 2 2 1 0 0 1 2 1 1
4 3 1 0 0 0 0 0 0 0 0 0 0 0 0 0 0 0 0 1 1 1 0 0 2 3 4 4 4 3 2 1 1 1 2 3 3 2 2 3 4 3 2 2 2 2 2 1 1
2 2 1 0 0 0 0 0 0 0 0 0 1 1 0 0 0 0 0 2 2 1 0 1 2 2 1 2 2 3 4 4 3 3 4 5 5 3 3 4 4 2 2 3 4 3 3 1 1
1 1 0 0 0 0 0 0 0 0 0 1 2 1 0 0 0 0 0 1 2 1 2 4 4 3 2 1 1 3 6 7 6 5 4 5 4 4 3 4 3 1 1 2 2 3 3 1 0
0 0 0 0 0 0 0 0 0 0 0 1 1 1 0 0 0 0 0 0 1 3 6 8 8 7 7 6 3 3 5 7 7 6 5 4 5 5 5 5 3 1 1 1 2 2 2 1 0
0 0 0 0 0 0 0 0 0 0 0 0 0 0 0 0 0 0 0 0 2 6 9 10 11 13 14 13 9 5 4 6 9 9 9 8 8 8 8 7 5 3 2 2 3 3 3 2 1
0 0 0 0 0 0 0 0 0 0 0 0 0 0 1 1 1 0 0 2 5 9 12 12 12 15 17 17 14 9 6 8 11 13 12 12 12 12 11 10 8 5 3 3 4 3 2 3 2
0 0 0 0 0 0 0 0 0 0 0 0 0 1 1 2 1 0 1 4 7 12 15 15 13 15 17 16 13 10 8 10 14 15 16 15 15 15 14 12 9 6 4 4 4 3 2 2 2
0 0 0 0 0 0 0 0 1 0 0 0 1 2 3 3 3 2 2 5 9 13 15 14 12 14 16 15 12 9 8 11 15 16 16 14 14 14 14 12 9 6 5 4 5 5 3 2 2
0 0 0 0 0 0 0 0 0 0 0 0 1 2 3 5 6 5 5 7 10 12 13 12 12 15 18 16 12 10 10 14 17 17 15 12 11 11 11 10 8 6 5 5 6 6 5 4 3
0 0 0 0 0 0 0 0 0 0 1 1 1 2 3 7 10 9 8 9 11 12 12 12 14 18 21 20 16 15 15 17 19 18 17 13 10 10 10 9 8 6 5 6 8 9 8 5 5
0 0 0 0 0 0 0 0 0 0 1 2 3 3 4 8 12 11 9 10 12 15 16 16 17 19 22 22 21 19 18 18 17 18 18 15 11 10 10 11 10 8 8 8 9 9 8 6 5
0 0 0 0 1 0 1 1 1 1 1 1 3 4 5 9 13 13 12 11 14 19 21 20 19 19 20 21 21 20 19 17 16 18 18 14 11 9 11 13 13 11 11 11 11 9 7 6 5
0 0 0 0 0 0 1 1 2 1 1 0 1 3 5 9 13 14 13 11 13 18 20 21 22 21 20 20 19 18 19 19 19 20 18 14 11 10 11 14 14 14 15 14 12 10 8 6 5
0 0 0 0 0 0 0 1 2 2 1 0 0 2 4 7 11 13 13 12 12 13 17 23 28 27 24 22 19 18 19 20 20 22 21 17 13 11 11 13 14 15 16 15 14 13 11 7 5
0 0 0 0 0 0 0 1 2 4 3 1 1 3 5 5 8 12 15 15 12 12 16 26 33 34 30 27 23 19 17 17 17 20 21 19 15 13 12 11 13 15 17 17 17 16 13 10 8
0 0 0 0 0 0 1 2 3 4 2 1 2 5 7 7 9 13 18 20 17 14 17 27 37 40 37 31 25 19 14 13 15 18 19 18 15 13 12 10 12 16 18 18 18 17 15 12 11
0 0 0 0 0 0 1 2 2 2 1 0 2 4 6 8 11 15 21 24 22 19 21 30 39 44 40 33 27 20 14 12 16 19 19 16 13 12 11 11 13 15 17 18 19 19 17 14 11
0 0 0 0 0 0 1 1 1 1 0 0 0 2 5 8 12 17 21 24 23 23 27 33 42 46 40 32 27 22 16 14 17 21 20 15 10 9 10 13 17 17 16 16 18 19 18 15 14
0 0 0 0 0 0 1 2 1 0 0 0 0 2 5 8 12 16 19 19 20 25 31 38 46 48 40 32 27 23 19 17 17 19 19 15 11 9 9 15 19 20 19 16 15 15 15 15 14
0 0 0 0 0 0 1 2 2 2 2 1 1 4 6 8 12 15 16 16 18 24 33 42 50 51 41 33 28 25 24 23 21 20 19 19 16 13 12 13 17 19 19 17 15 14 14 13 12
0 0 0 0 1 1 1 2 2 3 4 3 4 7 8 9 12 15 16 16 19 25 33 42 50 51 44 36 33 30 30 30 28 25 22 21 20 17 16 14 14 16 17 17 16 16 15 12 10
0 0 0 1 3 2 1 1 2 4 5 4 5 9 9 9 12 15 16 17 21 26 33 41 49 50 45 40 36 33 33 33 32 28 23 21 21 20 19 17 14 16 16 15 15 16 15 13 10
Wind_Speed
10 10 9 5 4 2 9 11 11 11 11 10 9 10 12 11 9 7 6 8 10 11 11 11 10 11 11 11 10 11 11 11 11 11 11 12 11 12 12 13 12 12 13 13 12 11 11 11 11
9 11 7 4 2 4 10 11 11 10 9 8 11 12 12 12 11 8 7 7 10 11 11 10 12 12 12 11 10 10 11 11 11 11 11 11 11 12 12 13 12 12 13 13 12 11 11 11 12
11 13 6 3 3 8 10 10 9 9 8 9 11 12 11 9 9 7 7 8 11 11 11 12 13 13 12 11 10 10 10 10 10 10 11 11 11 12 12 12 12 12 13 12 12 12 11 11 11
7 6 4 1 10 12 10 9 8 10 10 11 11 10 11 9 7 8 9 9 11 11 12 13 14 13 12 11 11 10 9 9 10 10 10 11 11 11 12 12 12 12 12 11 12 11 11 10 10
7 3 2 5 11 12 11 9 9 11 11 13 14 12 11 10 11 10 8 9 10 11 12 13 13 13 12 11 10 10 9 9 9 10 10 10 10 11 11 11 11 12 11 11 11 11 10 9 8
2 4 0 7 12 12 11 9 11 12 12 13 13 12 10 9 10 9 8 7 8 11 13 13 13 13 12 11 10 9 9 8 9 10 10 10 10 10 10 10 11 11 10 10 10 9 8 7 6
5 4 4 9 11 11 10 9 11 11 12 11 11 11 9 10 9 8 8 7 8 10 12 11 11 11 11 10 9 9 8 8 9 9 9 9 10 10 10 10 10 10 10 9 8 8 7 6 5
5 1 5 8 11 11 10 11 11 12 10 9 9 10 9 10 9 8 8 8 8 8 9 9 10 9 9 9 9 9 8 8 9 9 9 9 10 10 10 9 9 9 9 8 7 7 7 5 4
4 2 6 8 9 10 10 11 11 11 11 12 12 14 13 12 10 9 8 8 7 7 6 7 8 9 8 8 10 9 8 7 8 7 9 7 5 6 7 9 10 9 9 8 7 7 6 5 5
2 5 9 8 10 10 9 10 9 9 11 12 13 14 13 11 9 8 9 8 7 7 7 6 6 6 6 6 7 5 6 5 4 3 6 4 3 3 6 9 9 9 8 7 7 7 6 4 3
5 7 8 9 10 10 9 9 9 10 10 11 13 12 11 10 9 8 8 8 8 6 6 7 6 5 5 4 5 3 3 4 4 3 4 3 3 3 4 4 5 5 6 4 6 6 4 3 2
6 7 8 9 9 9 10 10 12 12 11 13 13 12 10 9 9 8 8 8 8 6 6 7 7 6 5 3 3 3 3 3 3 3 3 3 2 2 2 2 3 3 2 3 2 2 2 2 2
6 6 7 8 9 9 10 11 11 12 13 13 13 11 10 9 9 8 8 8 7 6 7 7 6 6 5 3 1 3 2 3 4 3 2 3 3 2 2 2 2 2 3 3 2 2 2 1 1
5 5 6 7 8 8 10 10 10 12 13 12 11 10 9 9 9 9 8 7 7 5 6 7 7 6 5 3 2 2 2 2 3 3 4 3 3 3 3 3 2 1 2 2 2 2 2 1 1
3 3 4 5 6 7 8 8 10 11 11 11 10 10 10 9 8 8 8 7 7 6 6 6 7 6 5 3 2 2 2 4 3 3 4 3 3 3 2 2 2 2 2 3 2 2 2 2 2
2 3 3 3 4 6 4 7 8 9 10 11 10 10 9 8 8 9 9 7 7 6 5 4 5 7 5 2 1 1 2 3 3 3 4 4 3 3 2 2 2 2 2 2 2 2 1 1 1
3 3 3 4 4 6 5 7 8 9 10 10 10 10 9 9 8 9 9 9 8 6 5 5 5 6 5 3 1 2 2 2 2 3 3 3 3 3 2 2 1 2 2 1 2 3 1 1 1
3 2 3 3 4 5 6 8 8 8 9 10 10 10 9 9 9 8 8 9 8 7 6 5 5 5 4 2 1 1 2 2 2 3 3 3 2 2 2 2 2 1 1 1 2 2 2 1 1
4 3 2 1 2 2 5 8 8 8 9 10 10 10 10 10 10 9 8 9 9 7 6 5 5 4 2 2 1 1 1 1 2 3 3 3 2 3 2 2 2 2 2 1 2 2 2 1 2
4 3 2 1 3 2 3 7 7 8 9 9 10 10 10 11 11 10 8 8 8 7 6 6 5 4 3 2 1 1 1 1 2 3 3 3 3 2 3 3 1 2 2 2 1 1 1 1 1
5 4 4 3 2 2 2 3 6 8 8 9 10 10 11 12 12 11 9 9 8 8 7 6 5 5 3 3 2 1 1 1 2 3 2 2 2 2 2 3 2 2 2 2 2 2 2 1 0
5 4 5 7 6 4 5 3 6 8 10 10 10 11 12 12 13 12 11 9 9 8 8 6 6 5 4 3 2 2 2 2 2 2 2 2 1 2 2 2 2 1 1 2 2 2 1 2 1
6 6 8 9 7 6 6 4 4 7 8 9 10 11 11 12 13 13 12 10 9 9 8 7 7 5 4 3 2 1 1 1 2 2 3 2 2 2 2 2 1 1 1 2 1 1 1 1 0
6 8 10 9 6 7 7 4 2 5 8 8 9 11 12 12 13 13 12 10 9 9 9 9 8 6 5 4 3 2 1 2 2 2 2 1 2 1 2 2 1 1 0 1 1 1 1 1 0
8 8 6 5 5 5 4 3 4 6 9 9 11 12 12 12 12 12 12 12 10 10 9 9 9 7 6 5 3 3 2 2 1 1 2 1 1 2 2 2 2 1 1 1 1 1 1 1 1
9 10 7 6 4 4 5 2 5 8 8 9 9 10 12 13 13 12 12 12 11 10 9 9 10 8 7 6 4 4 3 2 2 1 1 1 0 1 3 3 2 1 1 1 1 1 1 1 0
9 9 10 9 9 6 3 4 7 8 8 9 10 9 10 12 13 13 13 12 12 11 10 10 10 9 7 7 5 4 4 2 1 2 1 1 1 1 3 2 2 1 1 1 1 1 1 1 0
10 8 7 7 6 5 3 3 3 5 7 9 9 8 8 10 12 13 12 12 11 11 10 9 10 9 8 7 6 6 5 3 2 2 2 1 1 2 2 2 2 2 1 1 0 0 1 1 0
10 10 8 7 7 7 4 1 3 4 5 8 9 9 9 9 10 11 11 11 10 10 10 10 10 9 8 7 6 4 5 4 3 2 3 2 1 2 1 1 1 1 1 1 0 0 1 1 0
11 11 10 8 6 7 6 1 3 3 5 5 5 7 7 8 9 10 11 11 10 10 10 9 9 10 9 7 6 5 5 4 4 3 2 2 2 2 2 1 1 2 2 1 0 1 1 1 1
Wind_Direction
186 207 216 238 248 239 59 59 54 52 53 51 48 55 57 52 61 83 91 91 99 105 108 106 102 107 102 97 95 96 95 92 90 92 94 93 95 96 98 101 102 106 111 111 111 111 107 108 114
206 216 223 247 264 63 65 58 59 61 63 64 61 62 67 66 77 90 94 96 103 104 104 100 108 107 103 99 96 97 96 94 93 95 96 97 97 99 98 100 101 103 107 108 108 110 107 106 113
240 241 243 233 50 64 68 67 74 78 73 74 73 64 62 71 78 98 114 113 103 101 104 106 109 109 106 102 100 97 97 98 99 99 99 99 100 101 101 101 100 103 107 106 105 106 105 105 110
245 242 249 245 69 70 72 72 77 76 71 70 77 72 67 71 93 111 119 110 108 112 110 113 113 111 107 104 100 98 99 100 103 105 104 103 104 104 104 103 104 106 108 108 108 107 108 108 112
246 269 254 72 73 72 69 71 77 74 71 72 77 83 79 78 98 108 112 113 114 114 113 122 120 117 113 109 107 105 104 105 110 111 110 109 109 109 109 107 107 109 110 110 111 113 113 114 116
245 267 179 76 78 78 73 69 74 76 79 81 85 89 88 98 102 109 106 102 108 116 118 125 127 123 120 117 114 113 112 115 118 117 115 113 112 113 111 111 111 112 113 113 115 119 120 121 126
234 269 56 79 82 79 75 72 71 75 75 81 96 96 103 105 110 111 106 102 108 113 120 129 132 130 128 126 125 124 123 125 128 126 124 121 121 121 120 120 122 122 122 123 125 129 131 132 140
256 334 51 76 84 84 81 75 75 78 77 81 95 102 115 119 124 116 112 113 115 115 119 130 134 137 138 135 138 136 135 135 140 140 138 135 132 133 134 135 137 138 136 137 139 142 145 149 163
276 34 58 66 81 90 93 90 86 89 88 77 78 98 113 123 124 122 115 113 111 112 115 123 126 139 143 139 142 150 149 146 150 152 154 156 149 143 141 136 142 145 147 148 151 156 160 169 185
103 68 66 69 86 93 93 97 107 103 92 90 90 100 115 121 123 121 118 117 114 116 120 116 117 124 131 132 139 154 155 149 162 146 152 165 150 140 131 140 150 154 157 161 168 164 165 190 188
71 78 88 85 87 94 95 97 101 102 98 103 110 115 121 125 124 117 113 115 109 113 117 120 116 120 119 120 135 147 145 145 155 145 148 147 145 134 130 145 151 163 170 171 160 173 189 185 165
88 77 86 89 91 91 90 89 84 86 100 112 117 121 123 127 122 118 115 111 109 107 107 103 110 108 102 102 125 136 137 147 138 149 157 141 135 129 133 138 153 164 165 154 163 166 175 167 162
93 90 94 97 94 94 95 91 93 98 105 114 120 126 129 127 120 114 108 107 108 113 107 96 99 102 104 101 94 108 118 138 130 137 130 130 134 134 135 141 152 156 146 156 162 155 152 131 131
95 108 111 106 106 112 106 109 106 109 117 121 127 130 129 124 120 113 111 108 111 112 101 104 108 107 111 114 99 114 134 121 126 142 140 137 131 139 146 153 158 148 142 145 149 142 138 143 124
126 151 139 128 124 124 114 104 103 119 127 131 131 129 129 127 126 123 121 119 116 108 99 101 111 107 106 112 143 141 145 136 133 123 122 126 126 131 147 152 155 159 160 151 150 160 150 162 152
228 222 158 153 136 130 134 107 120 133 137 137 139 138 134 134 136 129 125 121 114 108 102 97 109 109 103 95 79 76 93 110 118 119 123 127 129 146 152 152 156 166 157 150 147 138 133 133 124
221 226 193 165 160 150 139 125 141 156 149 144 147 145 147 146 140 134 132 127 117 112 111 102 88 101 106 101 91 104 91 87 105 112 108 124 139 141 148 144 136 151 133 150 151 122 138 131 127
235 182 224 166 153 141 126 133 150 160 155 151 153 154 155 151 143 137 134 128 122 116 111 108 102 98 110 108 85 87 91 110 107 102 116 126 125 130 128 134 136 126 108 106 104 119 138 150 165
256 243 231 190 159 152 131 139 155 165 165 156 160 160 154 152 144 142 142 136 132 126 123 119 111 108 113 106 107 106 108 105 108 114 114 121 119 117 122 99 124 125 115 122 121 133 150 141 119
259 271 259 235 166 202 145 142 154 172 172 160 159 157 158 156 148 148 151 146 141 136 133 128 125 125 127 117 113 114 105 112 110 98 103 113 114 118 131 117 126 115 124 129 132 146 130 141 145
248 267 265 252 209 227 172 155 166 176 172 163 163 161 163 163 156 157 162 158 152 148 149 147 136 135 131 125 131 97 90 57 86 103 109 108 110 119 97 115 122 125 143 143 162 159 155 157 116
256 255 260 256 249 231 212 199 186 183 171 170 170 170 168 166 162 162 165 167 161 155 152 137 136 136 133 136 129 131 119 95 85 104 113 110 101 100 93 106 110 107 108 136 184 157 166 152 176
272 266 260 261 254 257 226 229 185 167 173 178 177 173 168 168 165 164 166 166 166 161 156 147 140 136 132 141 137 130 100 110 106 101 114 121 118 120 114 116 116 108 120 140 118 118 136 122 150
266 271 263 262 259 254 236 215 179 164 183 180 185 175 171 166 164 163 163 161 165 163 159 155 146 144 148 154 147 146 128 90 87 83 100 140 142 148 142 138 119 112 130 127 128 141 138 113 62
245 256 261 253 240 252 252 195 159 165 170 171 175 172 169 166 162 164 164 163 165 166 165 157 149 152 159 163 161 159 146 130 129 148 140 186 146 145 148 124 126 128 121 128 143 152 149 146 156
244 250 261 276 266 256 254 187 145 145 150 155 154 160 165 166 165 165 165 165 167 168 164 159 155 159 166 170 167 164 155 177 174 184 164 169 122 119 132 128 129 129 130 115 117 131 168 152 168
243 254 272 274 268 265 233 168 151 156 155 146 148 160 163 166 166 167 168 172 172 171 167 163 157 160 167 172 167 169 177 198 174 151 194 157 126 144 118 122 125 117 88 40 37 90 53 80 156
246 260 269 272 280 275 261 212 171 156 154 147 149 152 161 163 165 167 168 171 170 169 163 162 160 162 166 170 175 176 179 182 174 168 164 155 125 96 124 131 134 138 136 141 295 125 113 115 262
234 246 258 274 280 286 280 278 127 155 154 150 152 158 165 166 166 165 165 166 164 163 165 166 161 162 168 173 174 168 167 177 180 172 162 166 157 140 140 148 156 156 144 133 92 175 165 163 218
248 248 249 251 260 271 279 243 138 141 127 129 143 150 151 161 166 160 157 159 163 166 166 163 164 168 170 169 166 167 165 172 177 169 156 155 155 147 150 164 167 175 150 140 155 272 79 89 82